Location: ??????
(38.0131°N, 23.7723°E)
Time: 19:03:46
(UTC+00:00)

Okean-O - Pass Details

Date: 26 May 2022
Orbit: 638 x 640 km, 98.1° (Epoch: 28 June)

Event Time Altitude Azimuth Distance (km) Brightness Sun altitude
Rises 18:41:05 0° 189° (S) 2,928 5.7 -11.3°
Reaches altitude 10° 18:43:28 10° 199° (SSW) 2,024 5.0 -11.7°
Maximum altitude 18:47:24 32° 263° (W) 1,108 4.3 -12.3°
Drops below altitude 10° 18:51:22 10° 326° (NW) 2,037 6.5 -12.9°
Sets 18:53:47 0° 337° (NNW) 2,950 7.3 -13.2°
